This is the latest recevied weather packets stored in our database for station/object W4KAB. If no packets are shown the sender has not sent any weather packets the latest 10 day(s).
| Time | Temp. | Humidity | Pressure | Rain* | Wind** | Luminosity | Snow |
|---|---|---|---|---|---|---|---|
| 1777940704 | 20.56° C | 44% | 1015.3 hPa | 0 mm | - | 0 W/m² | - |
| 1777940403 | 20.56° C | 43% | 1015 hPa | 0 mm | - | 0 W/m² | - |
| 1777940100 | 21.11° C | 46% | 1015.2 hPa | 0 mm | - | 0 W/m² | - |
| 1777939796 | 21.11° C | 47% | 1015.1 hPa | 0 mm | - | 1 W/m² | - |
| 1777939494 | 21.11° C | 45% | 1015.1 hPa | 0 mm | - | 2 W/m² | - |
| 1777939191 | 21.67° C | 45% | 1015 hPa | 0 mm | - | 3 W/m² | - |
| 1777938888 | 21.67° C | 45% | 1014.9 hPa | 0 mm | - | 4 W/m² | - |
| 1777938584 | 22.78° C | 40% | 1015 hPa | 0 mm | - | 6 W/m² | - |
| 1777938282 | 22.78° C | 41% | 1014.7 hPa | 0 mm | - | 7 W/m² | - |
| 1777937978 | 22.78° C | 40% | 1014.8 hPa | 0 mm | - | 10 W/m² | - |
| 1777937674 | 22.78° C | 39% | 1014.8 hPa | 0 mm | - | 12 W/m² | - |
| 1777937371 | 23.33° C | 41% | 1014.8 hPa | 0 mm | - | 14 W/m² | - |
| 1777937068 | 23.33° C | 38% | 1014.8 hPa | 0 mm | - | 15 W/m² | - |
| 1777936766 | 23.33° C | 38% | 1014.6 hPa | 0 mm | - | 20 W/m² | - |
| 1777936462 | 23.33° C | 38% | 1014.6 hPa | 0 mm | - | 22 W/m² | - |
| 1777936158 | 23.89° C | 38% | 1014.4 hPa | 0 mm | - | 18 W/m² | - |
| 1777935855 | 23.89° C | 38% | 1014.6 hPa | 0 mm | - | 39 W/m² | - |
| 1777935554 | 23.89° C | 39% | 1014.6 hPa | 0 mm | - | 20 W/m² | - |
| 1777935250 | 23.89° C | 37% | 1014.4 hPa | 0 mm | - | 21 W/m² | - |
| 1777934948 | 23.89° C | 38% | 1014.4 hPa | 0 mm | - | 52 W/m² | - |
| 1777934644 | 23.89° C | 37% | 1014.3 hPa | 0 mm | - | 33 W/m² | - |
| 1777934342 | 24.44° C | 37% | 1014.6 hPa | 0 mm | - | 26 W/m² | - |
| 1777934036 | 24.44° C | 38% | 1014.5 hPa | 0 mm | - | 30 W/m² | - |
| 1777933733 | 24.44° C | 38% | 1014.6 hPa | 0 mm | - | 53 W/m² | - |
| 1777933430 | 24.44° C | 38% | 1014.6 hPa | 0 mm | - | 48 W/m² | - |
* Rain latest hour (hover to see other rain measurements)
** Current wind speed in m/s (hover to see current wind gust speed)